Location: Dana
(41.8364°N, 106.7042°W)
Time: 02:27:43
(UTC+00:00)

Altair - Pass Details

Date: 18 May 2026
Orbit: 1501 x 1682 km, 47.2° (Epoch: 6 June)

Event Time Altitude Azimuth Distance (km) Brightness Sun altitude
Rises 11:27:45 0° 237° (WSW) 4,793 - -3.5°
Exits shadow 11:28:53 - 236° (WSW) 4,433 9.2 -3.3°
Reaches altitude 10° 11:30:48 10° 236° (SW) 3,832 8.9 -3.0°
Maximum altitude 11:40:39 82° 151° (SSE) 1,671 7.8 -1.4°
Drops below altitude 10° 11:50:49 10° 65° (ENE) 3,945 12.1 0.3°
Sets 11:54:00 0° 65° (ENE) 4,938 14.8 0.9°
